{"data":{"norad_id":69563,"epoch":"2026-09-19T12:38:37.671360Z","epoch_age_seconds":105739,"freshness":"FRESH","line1":"1 69563U 26135T   26262.52682490  .00014582  00000+0  45308-3 0  9992","line2":"2 69563  97.2826 290.2657 0000655 104.2704 255.8611 15.33449563 14859","mean_motion":15.33449563,"eccentricity":6.55e-5,"inclination_deg":97.2826,"raan_deg":290.2657,"arg_perigee_deg":104.2704,"mean_anomaly_deg":255.8611,"bstar":0.00045308,"rev_number":1485,"period_min":93.9059252254,"perigee_km":465.08133807196,"apogee_km":465.97785839633,"semimajor_km":6843.6665982341,"source":"CELESTRAK","updated_at":"2026-09-20T09:00:44.245256Z"}}